User: anonymous   Login
Location: Unspecified
(0.0000°N, 0.0000°E)
Time: 01:07:45
(UTC+00:00)
Language:

ION SCV-008 - Orbit

View from above orbital plane
View from above orbital plane
View from above satellite
View from above satellite

Ground track
Ground track

The orbit is defined by the following mean orbital elements,

1 55051U          26145.52034471 +.00000000 +00000-0 +23531-3 0 00000
2 55051  97.5696 241.4664 0016498  93.5046 266.8080 15.28252307    07
Epoch (UTC): 25 May 2026 12:29:17
Eccentricity: 0.0016498
inclination: 97.5696°
perigee height: 470 km
apogee height: 492 km
right ascension of ascending node: 241.4664°
argument of perigee: 93.5046°
revolutions per day: 15.28252307
mean anomaly at epoch: 266.8080°

The dashed part of the orbit path shows where the satellite is in the earth's shadow,  

DLR